Location: Augustenthal
(51.7167°N, 10.2833°E)
Time: 12:46:08
(UTC+00:00)

ISS - Pass Details

Date: 20 September 2021
Orbit: 418 x 423 km, 51.6° (Epoch: 19 October)

Event Time Altitude Azimuth Distance (km) Brightness Sun altitude
Rises 18:47:45 0° 240° (WSW) 2,358 0.7 -13.9°
Reaches altitude 10° 18:49:53 10° 235° (SW) 1,497 -0.5 -14.2°
Maximum altitude 18:53:09 51° 159° (SSE) 538 -3.5 -14.7°
Enters shadow 18:54:19 33° 102° (ESE) 734 -3.1 -14.9°
